SL-14 R/B, 15517

Orbit data source: Space-Track

SL-14 R/B, 15517 is space debris in LEO originally from a launch on Wed, 06 Feb 1985 UTC launched from the Plesetsk Missile And Space Complex (PKMTR). Debris objects in space refer to the collection of defunct objects orbiting the Earth. Examples of debris include non-operational satellites, rocket bodies, and fragments generated from explosions, collisions, or faulty payload assembly.

Loading next visibility...
Identifier
15517, 1985-013B
Orbit
LEO
Country
Flag of CISCIS
Related business
Manufacturer
Yuzhnoe
Mission
Spacecraft
Bus & Motor
S5M, Unknown motor
Mass
1,600 kg wet, 1,600 kg dry
Launch date (UTC)
1985-02-06 (41 years ago)
Launch vehicle
Unknown
Launch site
Plesetsk Missile And Space Complex (PKMTR)
Object type
Payload
Rocket body
Debris
Shape & HBR
Unknown
Radar Cross Section
Large (>1 m²)

Expand to show TLE details & history
Last TLE update: 2 days ago

TLE from 2 days ago
0 SL-14 R/B
1 15517U 85013B   26171.45548138  .00000030  00000-0  13821-4 0  9993
2 15517  82.5361 341.0112 0013751 313.3424  46.6590 13.85003661 90456
Epoch: 2026-06-20T10:55Z
TLE epoch observation values (Epoch: 2026-06-20T10:55:53.591Z)
Latitude
0.00002°
Longitude
-91.63195°
Altitude
942.189 km
Speed
7.384 km/s
True Right ascension
22h 44m 02s
True Declination
0° 00' 00"
Sunlit
Object was in daylight at epoch
Visualization orbit readout
Latitude
Unknown
Longitude
Unknown
Altitude
Unknown
Speed
Unknown
Apparent Right ascension
Unknown
Apparent Declination
Unknown
Sunlit
N/A
Visualization observer readout
Local Sidereal Time
23:08:26
Azimuth
Unknown
Elevation
Unknown
Doppler factor
Unknown
Orbital elements
Apogee altitude
953.412 km
Perigee altitude
933.276 km
Semi-major axis
7,321.481 km
Eccentricity
0.00138
Inclination
82.5361°
RAAN
341.0112°
Arg. of periapsis
313.3424°
True anomaly
46.77374°
Mean anomaly
46.659°
Eccentric anomaly
46.71635°
Mean motion
3.46453 °/min
Orbital period
103.91 mins
BSTAR
0.000013821
Loading maneuver chart data...
Computing Atmospheric mass density...
Loading historical data...
Loading historical data...
Loading historical data...
Loading historical data...
Loading historical data...
Loading historical data...
Loading historical data...

Documentation

Showing up to 5 results
|